Regional Weather Roundup
Issued by NWS

Home | Current Version | Previous Version | Graphics & Text | Print | Product List | Glossary On
Versions: 1 2 3 4 5 6 7 8 9 10 11 12 13 14 15 16 17 18 19 20 21 22 23 24 25 26 27 28 29 30 31 32 33 34 35 36 37 38 39 40 41 42 43 44 45 46 47 48 49 50
000
ASUS43 KLOT 020208
RWRIL

ILLINOIS REGIONAL WEATHER ROUNDUP
NATIONAL WEATHER SERVICE CHICAGO/ROMEOVILLE IL
900 PM CDT MON JUN 01 2015

NOTE: "FAIR" INDICATES FEW OR NO CLOUDS BELOW 12,000 FEET WITH NO
SIGNIFICANT WEATHER AND/OR OBSTRUCTIONS TO VISIBILITY.

* THESE STATIONS ARE NOT UNDER NWS QUALITY CONTROL. THEY ALSO MAY NOT
  REPORT WEATHER SUCH AS PRECIPITATION OR FOG.

ILZ001-002-007-009-015-016-024-020300-
NORTHWEST ILLINOIS

CITY           SKY/WX    TMP DP  RH WIND       PRES   REMARKS
MOLINE         CLOUDY    64  52  64 E6        30.14S
STERLING*      CLEAR     55  45  67 E8        30.17S
SAVANNA*       CLEAR     60  43  54 E6        30.16S
$$

ILZ003-004-008-010-011-017-018-020300-
NORTH CENTRAL ILLINOIS

CITY           SKY/WX    TMP DP  RH WIND       PRES   REMARKS
ROCKFORD       PTCLDY    56  38  50 E6        30.21S
FREEPORT*      CLEAR     53  41  63 E7        30.20F
ROCHELLE*      CLEAR     56  41  58 E7        30.20S
DE KALB*       CLEAR     51  40  66 E6        30.21R
PERU*          CLEAR     61  47  61 E7        30.17S
$$

ILZ005-006-012>014-019>023-020300-
NORTHEAST ILLINOIS

CITY           SKY/WX    TMP DP  RH WIND       PRES   REMARKS
CHICAGO-OHARE  PTCLDY    51  35  54 NE8       30.21S
CHICAGO-MIDWAY PTCLDY    53  35  50 NE10      30.21S
AURORA         CLEAR     54  37  52 E10       30.20S
LANSING*       CLEAR     48  36  62 CALM      30.21S
JOLIET*        CLEAR     55  41  60 NE3       30.20R
WAUKEGAN       CLEAR     48  35  60 N7        30.21S
DUPAGE AIRPORT CLEAR     52  36  54 NE7       30.20R
KANKAKEE*      CLEAR     52  43  70 NE9       30.20R
WHEELING       CLEAR     49  36  61 NE7       30.23S
MORRIS*        CLEAR     55  46  69 E7        30.17S
ROMEOVILLE*    CLEAR     52  37  56 E6        30.20R
NORTHERLY ISL    N/A     48  39  71 N8          N/A
$$

LMZ740>746-020300-
SOUTHERN LAKE MICHIGAN

STATION/POSITION SKY/WX   TEMP    WIND        PRES    VSBY  WAVE
                          AIR SEA DIR/SP/G                  HT/PER
                          (F)     (DEG/KT/KT) (MB)    (MI)  (FT/S)
SOUTHERN BUOY              41 38  350/  8/ 10 1023.5R         1/ 3
HARRISON CRIB              48     350/ 11/ 13   N/A
BURNHAM HARBOR             48     340/  8/ 11   N/A
CALUMET HARBOR             49     350/  6/  9   N/A
BURNS HARBOR                       30/ 10/ 12 1023.4F
MICHIGAN CITY              50      10/  9/ 10   N/A
MICHIGAN CITY 6N           48 54   20/  6/  8   N/A           3/ 4
ST. JOSEPH                 53 55   40/ 12/ 14   N/A           3/ 4
$$

ILZ025>027-034>036-040-047-049-050-058-095>099-020300-
WEST-CENTRAL ILLINOIS

CITY           SKY/WX    TMP DP  RH WIND       PRES   REMARKS
QUINCY         CLOUDY    63  53  70 E3        30.15F
GALESBURG*     CLOUDY    62  55  77 SE3       30.15F
MACOMB*        CLEAR     59  55  87 CALM      30.17F
JACKSONVILLE*  PTCLDY    61  57  86 NE3       30.15S
PITTSFIELD*    CLOUDY    63  58  83 CALM      30.16S
$$

ILZ028>032-037-038-041>044-048-051>054-059>061-020300-
CENTRAL ILLINOIS

CITY           SKY/WX    TMP DP  RH WIND       PRES   REMARKS
PONTIAC        PTCLDY    60  53  78 NE9       30.18S
BLOOMINGTON    CLEAR     59  54  83 CALM      30.18S
DECATUR        CLOUDY    62  55  77 N9        30.15S
PEORIA         CLEAR     62  53  72 SE3       30.17R
LACON*         CLEAR     58  51  77 CALM      30.16S
LINCOLN*       CLEAR     58  53  82 NE3       30.15S
SPRINGFIELD    PTCLDY    61  54  77 NE8       30.16R
TAYLORVILLE    CLOUDY    61  55  82 N8        30.14S
$$

ILZ033-039-045-046-055>057-062-063-020300-
EAST-CENTRAL ILLINOIS

CITY           SKY/WX    TMP DP  RH WIND       PRES   REMARKS
CHAMPAIGN      MOCLDY    61  55  81 NE7       30.15S
DANVILLE*      CLEAR     59  54  82 CALM      30.14R
RANTOUL*       CLOUDY    64  56  77 NE6       30.16S
MATTOON        PTCLDY    60  53  77 E6        30.13S
PARIS*         CLEAR     60  54  80 NE6       30.15S
$$

ILZ079-100>102-020300-
SOUTHWEST ILLINOIS

CITY           SKY/WX    TMP DP  RH WIND       PRES   REMARKS
ALTON          CLOUDY    63  61  94 NE6       30.14S
BELLEVILLE     CLOUDY    63  59  87 VRB2      30.12S
CAHOKIA*       CLOUDY    64  56  75 N5        30.13S
SPARTA*        CLOUDY    61  57  87 CALM      30.14R
$$

ILZ064>066-069>071-074>076-080>082-084>086-088>090-092>094-020300-
SOUTH-CENTRAL ILLINOIS

CITY           SKY/WX    TMP DP  RH WIND       PRES   REMARKS
CARBONDALE     CLOUDY    61  55  81 NE3       30.12S
CAIRO*         CLOUDY    62  58  88 N8        30.11S
EFFINGHAM*     CLEAR     60  53  77 CALM      30.14F
MARION         CLOUDY    61  55  82 N6        30.13R
MT. VERNON     CLOUDY    59  52  77 CALM      30.14R
CENTRALIA*     CLOUDY    60  54  79 CALM      30.13S
SALEM*         CLOUDY    62  56  79 CALM      30.13S
$$

ILZ067-068-072-073-078-083-087-091-020300-
SOUTHEAST ILLINOIS

CITY           SKY/WX    TMP DP  RH WIND       PRES   REMARKS
LAWRENCEVILLE  CLOUDY    61  54  77 NE8       30.13S
FLORA*         MOCLDY    61  55  80 E3        30.13S
FAIRFIELD*     CLOUDY    60  54  81 NE3       30.12S
HARRISBURG*    CLOUDY    60  55  84 N3        30.13S
ROBINSON*      PTCLDY    60  54  80 NE3       30.14S
CARMI*         CLOUDY    61  52  72 N3        30.12R
$$

ABBREVIATIONS USED IN REMARKS
   TC - TEMPERATURE IN CELSIUS
  WCI - WIND CHILL INDEX
   HX - HEAT INDEX
  VSB - VISIBILITY
$$



USA.gov is the U.S. government's official web portal to all federal, state and local government web resources and services.